Regional Weather Roundup
Issued by NWS

Home | Current Version | Previous Version | Graphics & Text | Print | Product List | Glossary Off
Versions: 1 2 3 4 5 6 7 8 9 10 11 12 13 14 15 16 17 18 19 20 21 22 23 24 25 26 27

000
ASUS45 KBOU 250307
RWRCO

WEATHER ROUNDUP FOR COLORADO
NATIONAL WEATHER SERVICE DENVER/BOULDER CO
900 PM MDT TUE MAY 24 2016

NOTE: "FAIR" INDICATES FEW OR NO CLOUDS BELOW 12000 FEET WITH NO
SIGNIFICANT WEATHER AND/OR OBSTRUCTIONS TO VISIBILITY.

COZ001>005-013-030-031-250400-
...NORTHWEST COLORADO...

CITY           SKY/WX    TMP DP  RH WIND       PRES   REMARKS
CRAIG          FAIR      54  29  38 W12       29.95R
HAYDEN         FAIR      54  25  32 W6        29.96R
MEEKER         MOCLDY    58  27  30 W9        29.95R
MOUNT WERNER   NOT AVBL
STEAMBOAT SPGS FAIR      55  26  32 W9        29.96R
WALDEN         FAIR      52  18  25 SW13      30.00R
$$

COZ006>008-011-250400-
...WEST CENTRAL VALLEYS...

CITY           SKY/WX    TMP DP  RH WIND       PRES   REMARKS
GRAND JUNCTION FAIR      66  22  18 SW9       29.85S
MONTROSE       FAIR      64  16  15 SW3       29.94R
EAGLE          FAIR      63  14  15 SW10      29.95R
RIFLE          FAIR      66  16  14 W18       29.88R
DELTA          FAIR      70  13  11 W9        29.89R
NUCLA          FAIR      63  16  16 SW7       29.97R
$$

COZ017>023-064>068-250400-
...SOUTHWEST COLORADO...

CITY           SKY/WX    TMP DP  RH WIND       PRES   REMARKS
DURANGO        FAIR      59  10  14 SW9       30.02R
CORTEZ         FAIR      61  16  17 S9        29.98R
PAGOSA SPRINGS FAIR      59   6  12 SW7       30.07S
TELLURIDE      FAIR      53  10  17 SW5       30.14R
WOLF CREEK PAS FAIR      36  10  35 SW25G41   30.29R
$$

COZ009-010-012-014-032>034-037-058>063-250400-
...CENTRAL COLORADO...

CITY           SKY/WX    TMP DP  RH WIND       PRES   REMARKS
ASPEN          FAIR      52  25  35 VRB5      30.00R
BUENA VISTA    FAIR      58   7  13 S13G23    30.02R
COPPER MTN     NOT AVBL
BERTHOUD PASS  MOCLDY    32  23  69 SW21      30.25R WCI  20
COTTONWOOD PAS FAIR      54   0  11 SW13G20   30.13R
GUNNISON       FAIR      52  16  24 S9        30.03R
KREMMLING      FAIR      54  19  26 CALM      29.98R
LEADVILLE      MOCLDY    44  20  38 NE8       30.13R
MONARCH PASS   FAIR      36  14  41 SW36      30.33R
SALIDA         FAIR      62  10  12 SW10G17   30.07R
SUNLIGHT       FAIR      41  18  38 SW5       30.16R
WILKERSON PASS FAIR      41   7  24 SW9G20    30.22R
$$

COZ069>075-250400-
...SAN LUIS VALLEY/SANGRE DE CRISTO MOUNTAINS...

CITY           SKY/WX    TMP DP  RH WIND       PRES   REMARKS
ALAMOSA        FAIR      56  17  21 W14       30.03R
LA VETA PASS   FAIR      46  19  34 S12G20    30.18R
SAGUACHE       FAIR      57  14  18 W14       30.05R
$$

COZ035-036-038>040-250400-
...NORTHERN COLORADO FRONT RANGE...

CITY           SKY/WX    TMP DP  RH WIND       PRES   REMARKS
DENVER INTL AP FAIR      57  49  74 NW7       29.86R
DMNS CITY PARK   N/A     62  47  59 N9G17     29.86S
AURORA         PTCLDY    57  53  89 NW8       29.88R
FRONT RANGE AP NOT AVBL
ERIE MUNI ARPT FAIR      57  48  71 W3        29.85S
BOULDER MUN AP FAIR      61  46  59 CALM      29.86S
CENTENNIAL     FAIR      60  48  64 NW7       29.88R
BROOMFIELD     PTCLDY    59  48  67 NW12      29.88R
FORT COLLINS   FAIR      59  46  63 SW8       29.85S
LONGMONT       FAIR      62  49  61 CALM      29.85F
$$

COZ041-046-047-076>085-087-088-250400-
...PIKES PEAK/PALMER DIVIDE AND SOUTHERN FOOTHILLS...

CITY           SKY/WX    TMP DP  RH WIND       PRES   REMARKS
COLO. SPRINGS  FAIR      65  17  15 SW9       29.91R
A. F. ACADEMY  FAIR      64  14  14 S12       29.91R
SCHRIEVER AFB  NOT AVBL
ELLICOTT       FAIR     N/A N/A N/A SW10      29.89R
FALCON         FAIR      61  15  16 SW10G17   29.95R
FORT CARSON    FAIR      67  23  19 SW13      29.87R
LIMON          FAIR      58  41  53 S7        29.83R
MONUMENT HILL  FAIR      50  30  46 NW7       29.96R
TRINIDAD       FAIR      69  21  16 SW20      29.91R
$$

COZ042>045-048>051-090-091-250400-
...NORTHEAST COLORADO...

CITY           SKY/WX    TMP DP  RH WIND       PRES   REMARKS
GREELEY ARPT   MOCLDY    61  48  63 NE9       29.84R
AKRON          FAIR      54  47  77 E6        29.80R
BURLINGTON     FAIR      66  59  78 SE15      29.78R
WRAY           NOT AVBL
STERLING       FAIR      59  52  77 CALM      29.77R
HOLYOKE        LGT RAIN  55  52  88 E21G26    29.76F
FORT MORGAN    FAIR      55  46  71 N14       29.80R
$$

COZ086-089-092>099-250400-
...SOUTHEAST COLORADO...

CITY           SKY/WX    TMP DP  RH WIND       PRES   REMARKS
PUEBLO         FAIR      75  21  13 W13       29.81R
LA JUNTA       FAIR      69  40  34 W9        29.75R
LAMAR          FAIR      72  31  22 S10       29.69R
SPRINGFIELD      N/A     58  35  42 SW7       29.80R
$$




USA.gov is the U.S. government's official web portal to all federal, state and local government web resources and services.